Overview Statistics Trail Chart Weather Telemetry Raw packets
 

This is the latest recevied weather packets stored in our database for station/object LRTR. If no packets are shown the sender has not sent any weather packets the latest 10 day(s).

<< 11 12 13 14 15 16 17 >>
Time Temp. Humidity Pressure Rain* Wind** Luminosity Snow
1777452489 12.78° C 47% 1019 hPa - - - -
1777451585 12.78° C 47% 1019 hPa - - - -
1777450685 11.11° C 50% 1019 hPa - - - -
1777449785 11.11° C 50% 1019 hPa - - - -
1777448885 10° C 54% 1019 hPa - - - -
1777447985 10° C 54% 1019 hPa - - - -
1777447085 10° C 54% 1019 hPa - - - -
1777446185 10° C 54% 1019 hPa - - - -
1777445285 10° C 58% 1019 hPa - - - -
1777444385 10° C 58% 1019 hPa - - - -
1777443484 8.89° C 58% 1019 hPa - - - -
1777442585 8.89° C 58% 1019 hPa - - - -
1777441685 7.78° C 57% 1018 hPa - - - -
1777440796 7.78° C 57% 1018 hPa - - - -
1777439885 7.22° C 61% 1018 hPa - - - -
1777438985 7.22° C 61% 1018 hPa - - - -
1777438085 7.22° C 61% 1018 hPa - - - -
1777437185 7.22° C 61% 1018 hPa - - - -
1777436285 6.11° C 71% 1018 hPa - - - -
1777435385 6.11° C 71% 1018 hPa - - - -
1777434485 7.22° C 66% 1018 hPa - - - -
1777433585 7.22° C 66% 1018 hPa - - - -
1777432689 6.11° C 76% 1018 hPa - - - -
1777431784 6.11° C 76% 1018 hPa - - - -
1777430885 7.22° C 76% 1018 hPa - - - -

* Rain since midnight (hover to see other rain measurements)
** Current wind speed in m/s (hover to see current wind gust speed)